Wetbulb
53.76 53.91 54.16 54.37 54.55 54.42 54.21 54.20 54.35 54.47 54.76 55.51 55.76 55.46 55.47 55.12 55.20 54.43 51.99 57.09 61.08 64.82 64.48 62.06 64.73 63.27 64.23 62.76 61.13 58.05 50.21 49.07 51.57 52.62 54.00 58.11 56.86 59.93 60.81 59.23 60.42 61.41 61.26 62.46 64.19
53.52 53.82 53.89 54.09 53.59 53.91 54.26 54.00 53.82 54.08 54.33 54.92 55.06 55.45 55.73 55.66 51.83 51.40 58.26 64.81 65.34 66.03 56.34 55.25 58.30 60.41 58.27 58.49 59.12 54.89 50.75 51.25 55.49 56.32 55.87 57.77 57.66 58.61 58.57 58.66 59.01 59.85 61.92 63.08 63.53
53.18 53.37 53.86 53.97 54.22 53.97 54.15 53.89 53.75 54.06 53.97 54.23 54.64 54.61 55.13 54.99 50.98 50.57 62.12 65.22 65.97 64.48 55.65 56.41 56.65 57.80 55.71 56.48 56.92 56.84 52.17 54.74 56.45 58.70 59.02 58.07 58.27 59.89 58.10 56.83 59.09 58.69 60.67 62.11 62.73
53.35 53.74 53.94 53.98 53.96 53.81 53.82 54.03 53.77 53.85 54.03 54.07 54.29 54.48 55.20 52.95 43.26 55.22 62.81 61.19 61.65 57.37 54.42 52.60 51.85 51.41 54.51 53.48 56.23 52.29 56.62 56.94 57.46 58.81 58.70 57.52 59.11 57.88 58.58 59.00 61.46 62.36 62.41 62.54 62.51
53.01 53.39 53.49 53.63 53.61 54.07 54.29 53.56 53.68 53.71 53.78 53.95 54.04 54.16 52.36 46.93 48.46 56.51 63.44 62.61 57.44 55.57 53.78 52.44 50.00 50.42 49.76 54.10 55.36 53.68 54.43 56.34 58.06 58.68 58.91 58.95 57.19 56.76 57.91 60.78 61.91 62.04 62.50 62.47 62.61
52.74 53.05 53.20 53.39 53.41 54.02 54.28 54.03 53.72 53.85 53.53 53.54 53.96 53.51 49.56 40.82 53.23 55.05 56.27 55.99 55.65 55.66 55.45 56.90 53.47 53.71 51.79 52.24 52.48 55.51 55.21 55.21 56.51 56.64 57.37 56.14 56.55 57.00 58.20 61.07 60.74 61.07 61.38 62.08 62.33
53.79 53.85 53.57 53.34 53.39 53.75 54.24 54.03 53.78 54.15 53.87 54.18 54.22 53.27 47.68 45.31 53.49 54.49 53.99 53.18 55.12 54.95 54.18 56.47 58.60 55.68 54.38 51.35 54.79 54.32 52.83 55.09 55.71 56.21 55.80 57.28 54.39 54.99 58.29 59.27 58.96 59.59 60.24 61.25 62.01
53.62 53.49 52.81 52.80 53.38 53.95 54.16 54.01 53.76 53.87 53.87 54.87 54.98 52.29 44.13 52.41 53.83 52.41 53.00 51.87 52.71 53.82 53.46 54.46 55.76 53.18 53.74 54.76 53.24 51.25 51.57 48.85 53.93 55.55 56.26 55.78 50.56 56.67 58.78 58.31 57.96 59.08 59.99 60.71 61.75
53.47 53.30 52.89 52.58 52.80 53.09 53.59 53.39 53.82 53.85 54.43 55.11 52.30 49.87 44.08 55.81 50.88 53.49 52.95 49.20 50.63 51.30 52.67 53.97 53.01 50.89 51.15 49.05 47.69 49.78 46.15 47.51 50.61 55.16 54.60 54.66 51.61 56.39 58.95 58.16 58.15 59.11 59.72 60.25 60.91
53.18 52.97 53.06 52.87 52.87 53.30 52.77 52.64 53.79 53.69 54.15 55.07 53.91 47.14 50.27 48.15 51.15 51.37 53.79 53.05 49.20 49.12 48.92 49.70 48.87 45.85 46.71 45.73 41.66 44.65 45.44 47.67 48.55 52.78 54.04 52.55 52.78 56.00 58.21 57.88 58.03 59.05 59.44 59.25 59.58
52.75 53.00 53.06 53.16 53.35 52.83 51.53 52.27 48.20 47.74 51.07 47.99 48.59 47.85 48.81 51.15 51.10 48.65 50.22 49.68 50.26 48.99 42.71 47.06 43.59 41.57 43.93 46.45 47.18 47.91 47.83 47.04 50.74 53.45 52.42 52.11 52.37 54.24 56.83 57.07 57.10 57.86 58.60 59.19 60.57
52.54 52.54 52.89 52.77 52.96 52.48 51.37 48.59 48.50 49.08 41.72 47.58 47.27 46.92 48.27 48.66 44.01 46.74 49.98 44.69 44.77 42.23 45.79 43.29 41.44 46.48 47.24 47.01 46.05 45.49 45.56 46.51 50.47 52.47 52.00 51.75 51.46 54.64 56.28 56.62 57.39 57.57 58.49 59.40 60.12
52.47 52.47 52.54 52.30 52.23 51.91 51.11 49.94 52.90 51.57 42.08 43.67 46.50 45.65 46.04 47.41 43.94 44.54 47.27 44.81 41.86 40.80 43.07 40.71 43.51 47.20 46.57 45.39 44.31 45.02 44.40 46.12 46.44 49.79 51.42 50.74 49.23 52.16 54.99 56.60 57.47 57.96 58.51 59.41 59.58
52.24 52.30 52.05 51.53 49.38 51.47 49.45 52.42 52.79 52.04 35.48 39.80 42.46 45.62 47.11 47.07 43.26 48.68 49.21 45.65 42.24 38.78 41.14 42.31 46.23 44.24 44.82 44.32 45.81 42.99 47.14 46.69 46.54 45.76 42.82 49.75 42.13 50.40 53.25 54.02 55.27 56.61 57.58 58.26 59.23
51.92 52.22 51.89 50.68 50.43 49.10 50.81 53.48 53.38 49.28 24.60 41.84 44.09 51.52 48.70 45.45 46.80 47.23 51.56 46.39 40.40 40.33 40.58 38.49 41.66 43.07 41.98 44.46 46.96 44.85 47.84 46.67 46.59 45.39 46.08 45.78 44.23 47.57 52.06 51.09 53.26 55.38 57.00 57.97 59.92
51.83 51.93 51.60 52.60 52.18 53.23 53.81 53.10 49.50 33.49 23.93 36.69 42.25 40.38 41.51 43.53 44.49 46.82 47.30 49.86 47.27 42.06 41.93 40.64 44.50 43.63 44.83 46.36 46.70 48.74 46.32 46.50 46.89 45.73 40.59 45.52 44.72 44.84 47.94 51.84 53.40 55.50 56.92 58.02 59.37
51.52 51.18 50.24 52.76 48.53 53.63 53.43 48.37 33.40 26.53 38.86 34.22 36.73 39.70 39.34 38.44 40.06 42.58 42.00 41.29 39.46 35.52 36.67 40.49 40.01 42.88 44.75 42.99 46.67 45.81 45.27 38.79 37.67 38.44 37.84 45.85 43.90 46.31 51.64 53.53 54.22 54.88 57.18 59.00 60.26
50.19 49.47 52.38 54.12 54.39 53.62 49.94 39.83 26.18 32.27 34.56 39.99 39.05 39.14 36.59 39.34 39.08 39.91 39.11 37.81 42.04 40.57 36.93 34.12 33.77 40.52 43.57 42.52 42.98 44.15 44.62 39.86 32.81 35.56 39.12 45.36 41.60 46.36 53.77 55.12 56.16 55.94 57.44 59.16 61.13
48.62 53.84 52.75 53.64 54.51 53.19 44.89 32.30 29.09 34.20 37.87 37.13 38.15 34.89 34.25 37.78 37.79 38.36 37.40 37.07 39.97 41.32 35.16 34.74 35.69 45.32 45.03 44.48 45.14 43.58 41.04 46.80 43.03 43.91 40.23 43.82 47.37 51.24 53.98 54.27 56.05 55.67 57.18 60.25 62.79
48.81 51.19 50.92 55.28 54.86 49.15 40.96 33.83 36.58 40.30 39.60 38.91 32.82 35.69 31.77 35.52 34.51 35.76 36.31 39.61 40.07 41.90 43.21 38.25 31.60 40.76 44.84 44.84 45.00 45.02 47.39 40.86 43.60 35.78 35.79 41.46 44.21 46.19 51.45 53.16 55.92 55.89 56.37 61.39 63.03
49.88 47.23 52.91 54.19 53.40 45.46 35.83 36.44 39.23 41.76 41.64 37.99 35.70 34.40 35.33 34.64 36.51 34.54 35.15 38.27 42.25 41.70 42.68 40.76 37.11 36.22 42.48 42.26 39.89 42.74 42.52 44.35 45.85 43.19 38.93 38.42 43.08 54.79 53.66 55.45 54.84 55.33 57.08 61.18 62.51
49.71 42.91 52.52 54.59 43.21 43.35 37.89 39.52 41.54 41.17 42.49 39.97 40.40 38.07 35.67 36.36 35.43 36.03 35.92 38.80 43.69 42.99 38.09 41.26 37.88 33.91 37.05 45.00 46.44 45.11 43.81 44.88 41.37 40.43 43.88 43.40 43.88 55.66 55.03 55.89 57.29 56.45 57.45 61.86 62.69
46.80 46.62 53.31 51.41 37.92 37.95 40.60 39.96 41.60 39.88 40.29 40.29 38.24 39.92 40.45 36.56 32.82 34.36 36.73 41.52 42.60 40.87 39.10 40.58 37.18 31.95 34.40 40.29 45.17 42.89 45.34 46.73 47.57 48.59 43.39 41.16 44.15 55.37 55.10 55.27 57.52 58.12 58.35 62.01 62.35
47.19 41.73 46.05 46.84 45.35 38.72 37.75 37.39 36.96 43.01 41.24 41.84 40.28 41.01 38.16 35.93 38.93 35.76 34.98 40.02 43.13 42.31 43.74 41.35 36.35 34.54 31.01 36.27 39.20 39.99 44.32 45.72 45.97 43.03 43.90 45.19 46.94 51.74 54.55 55.30 58.76 59.47 61.47 61.70 62.03
47.05 43.14 45.15 38.25 39.75 40.20 39.29 38.00 36.83 36.45 40.87 41.74 38.95 39.30 37.86 34.21 35.64 35.69 38.41 39.75 41.78 41.95 41.84 39.19 32.22 35.30 37.47 38.04 38.64 39.19 41.77 45.13 44.29 47.02 43.70 46.20 48.22 51.39 54.88 57.48 58.56 61.30 61.74 61.15 61.25
44.55 41.57 43.71 40.10 42.39 40.65 39.01 37.52 36.66 38.57 38.29 37.08 37.22 39.08 39.57 35.86 36.28 34.90 37.83 38.58 37.72 40.98 37.83 40.43 34.27 36.70 35.37 39.02 37.22 36.05 40.49 44.32 46.02 46.58 47.68 47.97 49.38 55.87 58.05 58.90 58.86 59.44 60.34 60.32 60.85
47.06 47.43 42.55 39.82 40.87 39.36 38.17 37.89 38.05 39.69 41.34 40.83 40.14 39.45 37.97 39.42 41.81 42.87 43.08 42.51 41.69 39.32 38.12 37.79 37.03 35.46 31.83 37.83 36.11 33.78 41.30 44.28 46.93 49.03 49.40 46.38 51.53 56.10 53.95 55.28 58.94 59.64 60.41 60.65 61.12
MSLP
1020.60 1020.28 1020.00 1019.65 1019.34 1019.02 1018.79 1018.47 1018.15 1017.95 1017.64 1017.00 1016.46 1015.88 1015.51 1014.98 1014.41 1012.92 1011.13 1008.78 1008.53 1008.92 1009.21 1008.42 1008.18 1007.61 1007.29 1007.13 1006.77 1006.57 1006.10 1004.18 1002.67 1001.25 999.96 999.20 998.77 998.28 998.61 998.47 998.58 999.15 999.21 999.59 999.72
1020.64 1020.28 1020.00 1019.69 1019.30 1018.96 1018.66 1018.36 1018.15 1017.59 1017.07 1016.66 1016.16 1015.65 1015.25 1014.71 1013.76 1011.28 1008.63 1008.24 1008.28 1008.65 1008.68 1008.01 1007.17 1007.31 1006.85 1006.56 1006.50 1006.04 1004.89 1003.32 1002.32 1001.05 999.89 999.19 998.72 998.75 998.98 998.93 999.15 999.18 999.28 999.38 999.24
1020.58 1020.21 1019.87 1019.55 1019.22 1018.89 1018.57 1018.17 1017.61 1017.19 1017.01 1016.62 1016.45 1016.16 1015.43 1014.70 1012.28 1007.69 1007.78 1007.27 1007.81 1008.02 1007.99 1007.47 1006.95 1006.30 1006.08 1005.73 1005.38 1004.91 1003.47 1003.07 1001.84 1000.92 1000.00 999.31 998.97 998.87 998.70 998.85 998.94 999.18 999.26 999.05 999.17
1020.53 1020.11 1019.69 1019.26 1018.87 1018.52 1018.19 1017.74 1017.34 1017.00 1016.62 1016.38 1016.32 1015.70 1015.12 1014.66 1010.39 1007.40 1007.76 1007.75 1008.08 1008.05 1007.99 1007.63 1007.14 1006.03 1005.20 1004.71 1004.56 1003.89 1002.78 1002.48 1001.63 1000.82 1000.11 999.44 999.19 998.84 998.80 998.50 998.53 998.77 998.53 998.87 998.98
1020.59 1020.08 1019.57 1019.05 1018.58 1018.13 1017.69 1017.32 1017.01 1016.70 1016.44 1016.22 1016.04 1015.52 1014.81 1012.14 1008.76 1007.00 1007.55 1007.61 1007.68 1007.88 1007.49 1007.17 1006.64 1005.89 1004.32 1004.04 1003.91 1002.35 1002.05 1001.79 1000.84 1000.34 999.88 999.48 998.91 998.75 998.38 998.49 998.29 998.16 998.32 998.47 998.58
1020.59 1020.16 1019.69 1019.17 1018.62 1018.02 1017.43 1016.87 1016.44 1016.18 1016.18 1016.03 1015.64 1015.54 1014.71 1011.37 1008.15 1006.81 1006.48 1006.76 1006.52 1006.64 1006.31 1005.92 1005.52 1005.37 1004.22 1003.34 1002.75 1002.12 1001.68 1000.86 1000.22 999.66 999.20 998.84 998.20 998.54 998.16 998.18 997.92 997.96 997.91 998.01 998.00
1020.48 1019.99 1019.49 1018.98 1018.47 1017.91 1017.29 1016.63 1016.01 1015.55 1015.24 1015.12 1015.22 1015.08 1013.26 1010.07 1008.36 1007.41 1007.33 1006.71 1006.63 1006.25 1005.62 1004.90 1004.56 1004.67 1004.00 1002.96 1002.32 1001.93 1000.98 1000.02 999.08 999.18 998.34 998.78 997.36 997.30 997.76 997.85 997.49 997.54 997.41 997.26 997.37
1020.39 1019.94 1019.41 1018.78 1018.09 1017.37 1016.64 1015.91 1015.24 1014.99 1014.65 1014.31 1014.48 1014.13 1011.07 1008.47 1007.65 1007.20 1007.18 1006.64 1006.57 1006.22 1005.80 1005.45 1004.83 1004.10 1003.21 1003.10 1002.46 1001.38 1000.93 998.94 998.53 998.93 997.77 998.92 996.46 997.02 997.33 996.97 996.90 996.90 996.70 996.46 996.48
1020.40 1019.91 1019.35 1018.73 1018.08 1017.36 1016.59 1015.57 1014.46 1013.85 1013.95 1013.85 1013.66 1012.55 1009.04 1006.60 1006.63 1006.51 1006.43 1005.85 1005.46 1005.34 1005.35 1005.55 1005.39 1004.57 1003.84 1002.67 1002.02 1000.78 999.25 998.60 997.82 998.10 998.06 997.73 996.64 996.31 996.73 996.53 996.12 996.14 996.28 996.10 995.87
1020.30 1019.75 1019.15 1018.41 1017.64 1016.81 1015.95 1014.41 1012.28 1013.23 1012.82 1012.31 1011.82 1010.91 1007.67 1006.18 1005.25 1005.16 1005.24 1005.24 1005.28 1005.30 1004.94 1004.79 1004.92 1004.55 1003.75 1001.96 999.29 999.28 999.30 997.49 997.15 997.47 997.11 996.69 996.05 995.38 995.55 995.49 995.07 995.03 995.13 995.36 995.49
1020.06 1019.45 1018.79 1018.07 1017.32 1016.53 1015.71 1013.31 1010.67 1011.01 1011.19 1009.96 1008.46 1007.61 1005.84 1005.61 1005.15 1004.99 1004.74 1004.97 1004.94 1004.86 1004.08 1003.98 1004.18 1002.09 999.43 1000.28 999.73 999.78 998.47 997.30 996.82 996.57 996.60 996.20 995.70 994.59 994.72 994.52 994.17 994.18 994.33 994.56 994.96
1019.91 1019.30 1018.64 1017.81 1016.90 1015.96 1015.60 1013.01 1011.56 1011.60 1009.89 1009.07 1007.71 1006.37 1005.92 1005.83 1004.93 1004.60 1004.84 1004.75 1004.59 1004.07 1003.84 1003.66 1001.40 998.83 1001.97 1000.79 1000.35 999.37 997.99 996.99 996.62 996.31 996.12 995.36 994.52 993.98 993.81 993.56 993.54 993.41 993.51 993.88 994.39
1019.77 1018.96 1018.19 1017.37 1016.61 1015.22 1013.79 1012.04 1011.80 1011.34 1009.96 1007.29 1005.33 1005.15 1004.63 1004.57 1003.63 1003.73 1004.26 1004.21 1004.05 1003.57 1003.00 1002.25 999.05 1001.79 1000.84 1000.23 999.43 998.24 997.23 997.30 996.58 996.92 996.00 995.35 994.44 993.57 993.09 992.89 992.82 992.69 993.05 993.37 993.79
1019.43 1018.58 1017.82 1016.91 1016.15 1014.04 1012.58 1012.06 1011.53 1011.42 1009.87 1004.46 1003.15 1002.47 1002.96 1003.04 1002.63 1002.58 1002.77 1003.43 1003.39 1003.07 1002.95 1001.64 1000.97 1000.15 999.71 998.93 998.37 997.13 997.16 997.53 996.88 996.81 995.00 995.97 993.67 992.61 992.77 992.29 992.08 992.07 992.29 992.43 992.77
1019.22 1018.37 1017.45 1017.24 1015.98 1013.55 1013.04 1012.32 1011.73 1012.01 1009.03 1004.19 1004.18 1003.22 1003.73 1003.30 1002.39 1001.76 1002.26 1002.38 1002.53 1002.62 1003.25 1000.21 1000.23 999.73 998.86 996.82 998.39 995.47 997.96 996.92 996.46 995.95 995.84 995.40 994.43 989.70 992.41 991.55 991.40 991.45 991.35 991.45 991.75
1019.11 1018.33 1017.53 1014.99 1015.18 1013.56 1012.72 1012.66 1012.72 1012.49 1008.99 1006.90 1006.15 1005.62 1004.72 1004.12 1003.69 1003.40 1001.90 1001.99 1002.02 1002.25 1002.07 1000.63 1000.43 999.57 998.16 997.91 997.67 997.24 997.12 996.94 996.32 995.69 994.56 993.64 994.11 989.90 991.68 991.12 990.75 990.59 990.32 990.26 990.67
1018.90 1018.19 1017.60 1016.12 1014.44 1014.02 1013.26 1012.83 1012.99 1011.42 1009.21 1007.37 1005.70 1004.98 1004.47 1004.30 1003.72 1003.60 1002.25 1001.91 1002.27 1002.37 1001.34 1000.59 1000.19 999.45 998.67 997.50 997.12 996.87 996.49 996.03 995.73 994.49 992.34 993.52 992.75 990.44 990.82 990.42 990.04 989.61 989.49 989.58 990.12
1018.34 1017.69 1016.27 1014.76 1014.24 1014.10 1013.76 1013.72 1012.68 1011.59 1008.66 1007.29 1006.50 1005.68 1005.01 1004.40 1003.56 1002.64 1002.97 1002.52 1002.02 1002.03 1002.15 1001.59 1000.08 998.73 998.14 996.89 996.21 995.86 995.44 994.35 993.38 992.78 992.36 992.74 990.72 989.55 989.25 989.27 988.90 988.93 988.88 989.33 989.97
1017.85 1015.53 1015.03 1014.30 1014.37 1014.34 1013.88 1013.05 1012.72 1010.43 1008.93 1007.79 1006.95 1007.13 1006.93 1006.44 1005.69 1003.68 1003.18 1002.81 1002.29 1002.92 1003.22 1002.27 1000.43 998.76 998.45 997.33 996.48 994.96 994.62 993.83 993.62 992.76 992.00 990.13 989.19 988.29 988.14 987.95 987.99 988.42 988.96 989.69 990.84
1017.99 1015.63 1013.93 1014.28 1014.47 1014.55 1014.25 1012.48 1010.69 1009.27 1008.57 1007.98 1007.77 1008.42 1007.72 1006.47 1006.20 1005.95 1004.86 1004.98 1003.92 1003.65 1004.12 1003.38 1002.20 1000.16 998.12 996.52 995.73 994.66 993.98 993.64 992.83 992.04 990.58 989.78 988.37 986.52 986.46 986.87 987.04 987.81 988.84 989.99 991.27
1016.95 1014.18 1013.53 1014.04 1014.18 1014.11 1013.72 1012.07 1010.11 1009.05 1008.37 1008.27 1007.99 1008.28 1008.52 1007.65 1006.93 1006.38 1005.75 1005.54 1004.47 1003.94 1003.92 1003.96 1003.51 1000.15 999.22 995.80 995.20 994.64 993.12 992.65 992.56 991.74 990.47 989.18 987.28 985.60 985.69 985.95 986.47 987.47 988.57 990.00 991.42
1016.09 1013.49 1013.13 1013.33 1014.08 1013.92 1013.23 1012.02 1010.63 1009.30 1008.06 1007.86 1008.05 1008.10 1008.38 1008.57 1007.56 1006.47 1005.74 1005.55 1005.18 1004.91 1004.68 1004.45 1003.95 1001.22 999.41 996.88 995.90 994.66 993.16 992.46 991.34 990.89 990.35 989.30 987.23 985.91 985.62 985.87 986.26 986.96 988.18 989.76 991.32
1016.18 1013.55 1013.33 1013.17 1013.46 1013.53 1013.25 1012.06 1010.57 1009.54 1008.62 1008.54 1007.85 1007.80 1008.29 1008.35 1008.58 1008.21 1007.65 1007.19 1006.22 1006.02 1005.60 1006.00 1004.13 1002.23 1000.27 998.64 996.25 995.29 993.34 992.52 991.87 991.18 989.94 988.86 987.17 986.13 986.02 986.08 986.21 986.85 988.25 989.85 991.31
1016.66 1014.63 1013.39 1013.15 1013.29 1013.75 1013.14 1012.39 1011.33 1010.51 1009.74 1008.90 1008.30 1007.78 1008.18 1008.42 1007.10 1006.79 1007.68 1007.02 1006.29 1006.27 1006.28 1006.82 1005.82 1003.95 1001.55 999.56 999.91 996.62 994.15 992.43 991.44 990.10 989.12 988.01 987.08 986.54 986.33 986.00 986.50 987.19 988.63 990.01 991.32
1016.97 1015.52 1014.36 1013.98 1013.79 1013.65 1013.45 1012.59 1011.54 1010.40 1010.07 1009.55 1009.05 1008.16 1007.95 1007.44 1006.49 1006.28 1006.43 1006.04 1005.86 1006.33 1006.11 1006.90 1006.02 1004.59 1002.55 1001.64 1001.44 999.90 996.30 992.31 990.09 989.24 988.82 987.56 986.65 986.64 986.66 986.56 987.49 988.36 989.20 990.36 991.40
1017.69 1016.98 1015.97 1015.49 1014.08 1013.29 1013.32 1012.52 1011.91 1010.89 1010.72 1009.75 1009.45 1008.92 1008.18 1007.69 1007.13 1006.08 1005.86 1005.32 1005.05 1005.49 1006.32 1006.35 1005.53 1003.76 1002.04 1001.06 1001.20 999.83 996.16 992.34 989.45 988.81 988.59 987.72 986.32 986.76 986.81 987.63 988.40 989.14 989.62 990.52 991.43
1018.81 1018.21 1017.53 1016.00 1014.18 1013.35 1013.35 1013.04 1012.50 1011.88 1010.68 1009.93 1009.27 1009.19 1008.10 1007.53 1006.87 1005.95 1005.51 1005.09 1004.46 1004.14 1004.40 1005.04 1004.67 1003.47 1001.28 1000.79 1001.06 998.56 993.87 991.76 988.76 988.01 987.66 987.57 987.01 987.08 988.13 988.31 988.70 989.13 989.85 990.58 991.43
Wind_Speed
16 15 15 16 16 16 14 14 14 14 15 16 16 18 18 19 21 17 13 14 6 10 5 9 10 13 15 17 18 17 15 16 23 22 19 15 17 15 13 4 9 1 6 5 10
17 16 16 16 16 16 16 16 15 14 15 16 18 20 21 19 21 23 21 14 9 10 12 17 18 15 16 17 17 17 17 26 22 21 18 19 18 11 15 9 13 14 11 15 14
17 17 17 17 16 16 15 16 17 17 16 15 16 17 19 20 14 10 8 17 12 15 17 17 19 20 22 21 22 23 24 24 23 24 24 21 22 19 23 18 12 20 18 16 14
19 19 19 19 19 18 17 17 17 17 18 18 17 18 19 12 10 7 7 11 7 9 15 16 18 24 25 26 25 27 30 27 28 26 27 26 25 26 25 24 18 24 17 16 12
19 20 20 21 21 20 19 19 18 18 18 17 17 16 13 11 15 12 8 9 9 14 18 22 24 22 29 26 25 31 28 28 29 26 27 27 28 26 29 24 24 23 21 20 17
17 18 19 20 21 21 21 21 20 19 17 16 15 13 13 23 14 17 13 14 12 15 22 22 23 24 26 29 31 28 29 31 29 29 29 30 28 26 26 21 24 22 22 23 21
16 17 19 20 20 20 20 21 22 22 23 20 15 12 18 23 19 20 21 16 17 19 19 18 19 25 26 31 28 30 34 31 32 29 31 25 32 28 24 25 26 25 23 22 19
18 17 20 22 22 23 24 25 24 23 24 21 14 13 15 15 17 21 21 22 22 21 21 20 19 22 23 27 32 32 32 31 27 29 32 26 31 25 25 22 22 23 21 20 22
17 17 18 20 21 23 23 27 30 30 21 14 9 12 16 14 13 18 19 21 20 20 21 17 20 20 18 22 22 29 23 34 33 29 30 29 31 28 25 26 25 20 21 19 19
19 18 19 21 23 24 25 31 28 16 12 12 13 12 19 12 14 6 9 8 13 17 18 22 15 19 19 20 25 22 30 35 29 25 27 30 29 28 25 26 25 20 19 16 19
21 20 20 21 22 23 20 14 12 6 11 18 14 14 22 15 5 10 7 11 9 13 20 21 18 26 42 31 30 26 33 33 28 25 27 24 26 29 22 21 23 24 17 16 18
23 23 22 23 24 25 15 11 15 10 19 19 27 31 28 26 28 24 18 17 15 18 19 20 29 37 22 29 30 33 33 31 28 25 23 23 25 24 23 20 22 20 17 14 14
21 23 23 23 22 16 9 11 12 15 17 30 35 30 26 25 26 23 21 22 22 22 20 23 35 25 29 28 31 32 33 25 31 23 28 25 25 25 24 23 22 17 16 15 14
24 25 24 22 11 13 10 15 13 14 11 13 10 6 15 11 19 17 21 23 25 26 23 24 25 31 30 33 31 29 27 28 28 23 21 20 20 26 18 21 21 18 19 19 18
25 26 25 11 10 7 12 14 12 4 8 13 17 10 17 10 7 8 8 15 24 22 21 31 24 26 31 36 29 34 22 27 27 26 21 24 17 24 16 19 15 16 16 15 14
25 25 23 3 10 13 14 11 8 5 6 11 6 7 12 14 18 15 9 11 12 21 20 29 26 28 27 28 32 26 29 27 25 19 19 25 22 22 18 18 17 18 20 18 14
25 25 17 11 9 12 12 5 5 5 18 7 19 18 17 14 15 15 15 9 7 9 18 24 26 29 30 30 28 32 22 17 19 18 23 18 23 19 21 19 19 21 19 12 9
27 25 13 12 9 8 7 4 5 9 17 21 19 21 20 20 17 20 8 10 19 16 14 16 19 27 26 31 27 29 26 15 26 17 18 23 22 20 22 19 14 10 3 8 3
28 9 10 6 7 5 7 2 4 12 17 19 20 18 16 17 16 21 13 17 12 12 7 9 12 20 23 29 29 27 31 28 23 21 17 17 21 31 24 18 13 7 9 8 14
9 10 5 6 5 4 5 9 9 14 13 17 17 14 21 24 5 13 11 6 12 5 1 7 17 20 30 27 32 31 19 27 19 25 22 20 24 14 17 19 16 12 11 14 16
6 6 7 4 4 3 5 10 20 18 13 15 16 15 18 20 18 13 8 15 8 8 5 11 12 23 24 21 27 24 25 22 20 17 16 14 13 7 14 10 4 13 14 16 16
6 6 7 1 4 4 6 21 22 21 15 14 11 13 9 19 21 21 18 8 0 7 13 14 7 18 25 26 15 30 25 24 16 24 16 14 16 8 4 5 6 13 17 19 16
7 9 6 4 4 9 15 17 19 17 16 20 14 16 11 13 8 7 5 13 6 5 3 8 7 12 18 20 22 20 27 25 19 12 19 17 15 7 7 8 9 16 18 18 17
6 4 5 8 6 10 16 16 17 18 14 19 20 18 5 12 19 4 5 11 7 8 10 3 7 16 12 13 13 10 21 31 25 18 16 19 4 6 8 9 12 18 19 18 16
4 4 8 7 10 13 14 16 18 17 17 19 12 17 22 22 19 14 13 10 6 5 5 3 6 15 19 19 15 20 30 27 31 23 22 21 20 7 13 14 13 10 16 16 17
5 7 8 14 13 14 13 13 20 21 19 16 16 20 20 19 19 21 18 16 9 4 1 4 5 15 20 16 8 22 33 26 29 27 27 25 16 13 14 17 14 11 16 16 17
4 8 3 9 12 11 8 13 18 20 12 19 19 19 18 16 18 22 20 21 21 19 14 8 4 7 7 10 3 17 23 23 22 24 27 16 11 18 13 9 12 15 15 15 16
Wind_Direction
357 356 354 351 348 347 345 341 338 331 326 325 324 325 324 322 308 274 249 238 245 185 190 257 214 239 236 234 240 234 251 253 253 259 268 274 288 286 282 253 287 233 250 284 284
352 352 351 347 344 342 339 335 329 328 328 327 327 324 320 325 304 271 250 237 182 162 222 230 225 220 222 227 230 225 242 244 249 264 274 278 280 294 284 266 290 294 266 254 278
349 348 346 344 340 337 332 327 326 324 321 322 319 315 316 319 288 263 19 214 172 178 231 241 247 234 229 234 229 226 236 246 255 256 267 290 296 302 294 262 235 221 273 297 305
348 346 344 341 338 336 330 324 319 317 316 316 316 319 315 297 255 88 122 95 98 207 229 243 252 247 235 232 239 241 241 244 256 262 272 276 283 288 289 293 278 278 284 281 283
346 344 341 338 336 332 326 322 317 312 310 309 310 318 312 244 246 257 164 158 181 201 229 233 233 235 238 234 240 242 241 248 252 251 258 269 271 280 279 279 290 292 291 291 280
338 337 335 332 328 324 320 315 311 306 301 298 298 303 274 266 271 267 243 246 240 244 225 222 235 235 250 240 240 244 246 250 251 257 260 261 268 273 272 278 276 271 267 266 270
340 337 334 329 324 318 311 305 301 299 302 298 284 270 266 256 289 296 303 291 258 250 254 258 243 234 243 249 251 254 257 259 256 260 264 278 273 260 264 265 267 274 275 271 274
341 338 336 330 325 321 315 308 299 295 296 293 276 258 261 262 260 263 256 247 251 265 264 269 276 287 257 257 259 249 255 259 253 255 258 260 266 266 271 271 270 276 273 265 261
338 333 328 323 318 313 307 298 293 291 285 267 250 218 274 267 228 236 245 256 255 242 238 241 254 259 269 249 246 244 247 249 249 247 262 254 263 262 257 261 259 256 265 275 280
337 332 327 322 319 313 311 297 275 270 240 235 235 251 236 275 275 191 281 219 231 248 250 227 229 239 240 235 225 220 235 241 255 249 250 245 251 257 255 254 258 259 247 261 273
337 332 327 320 316 311 321 309 349 217 228 268 278 218 293 297 210 230 261 266 238 248 233 227 215 222 219 220 240 235 238 248 252 246 248 253 258 266 271 271 267 242 250 255 265
334 331 327 319 314 310 299 289 336 321 296 279 267 267 267 275 271 267 266 253 247 240 231 226 220 227 234 230 236 243 253 253 261 258 262 262 264 262 254 254 259 260 263 255 276
329 326 322 317 312 293 265 317 335 295 289 279 262 261 261 248 248 250 242 243 243 249 235 224 238 229 239 231 238 236 240 247 259 269 269 270 268 267 265 269 275 268 278 271 270
329 325 324 322 279 320 311 346 318 348 289 284 214 207 222 252 255 248 236 231 238 239 248 250 242 242 230 238 231 241 234 246 252 251 256 256 268 254 262 266 260 251 246 248 244
326 327 324 315 314 311 334 326 340 317 273 34 32 30 350 323 276 171 224 225 234 241 231 244 249 237 238 239 231 247 240 248 249 249 259 254 259 264 269 267 269 273 265 259 258
325 327 330 331 219 310 339 327 342 252 238 8 18 303 343 343 324 310 221 210 235 237 247 253 252 255 253 241 247 243 243 252 257 257 246 238 246 263 260 270 279 277 265 259 234
324 323 313 312 328 328 317 318 280 270 296 20 348 343 328 292 264 231 260 260 212 281 245 243 242 254 251 255 232 239 237 230 236 231 244 242 241 260 265 268 269 271 270 273 238
321 313 272 270 353 322 325 321 287 324 336 354 347 330 314 323 291 285 259 273 279 230 243 272 274 223 239 246 243 218 233 226 220 220 240 243 249 256 249 254 252 297 205 258 77
314 255 256 37 331 1 317 329 257 286 352 339 341 350 335 316 340 320 276 268 277 338 240 310 276 280 276 240 242 244 220 237 250 234 250 246 230 239 247 243 242 208 195 156 116
313 304 254 341 17 294 303 296 267 330 329 333 339 324 309 317 304 308 332 341 294 164 1 305 289 280 290 222 241 240 232 222 226 232 242 230 247 272 194 218 220 199 185 137 127
269 231 106 317 294 297 293 298 318 318 334 324 326 310 324 322 315 312 228 235 270 295 274 265 255 271 283 266 215 229 235 220 244 227 236 248 261 269 157 167 181 166 170 143 143
297 290 107 325 312 272 307 323 308 308 335 328 332 312 324 305 304 309 299 22 2 327 299 303 292 272 261 274 273 233 230 233 219 219 231 250 246 89 87 163 188 185 160 144 148
285 321 134 222 324 328 316 326 318 336 336 325 321 313 333 328 311 298 14 313 312 326 324 356 252 266 258 272 261 248 225 235 241 238 215 236 248 142 142 189 176 148 143 138 149
277 337 331 332 336 320 312 317 322 319 321 332 321 311 339 286 286 275 337 259 246 278 295 333 271 271 273 273 345 307 272 225 227 215 222 226 188 141 171 166 98 127 130 144 149
305 279 351 299 312 314 297 294 314 330 337 332 318 326 329 327 316 328 315 310 348 341 254 162 274 287 281 248 269 290 283 249 220 201 223 234 213 166 181 123 120 120 139 147 151
342 334 343 301 303 296 323 322 316 327 327 317 324 324 319 308 311 312 312 306 301 243 134 240 272 282 281 249 243 294 286 278 221 198 214 235 209 115 77 108 123 148 144 154 152
4 296 267 290 295 326 292 325 315 317 307 310 319 322 315 324 313 297 287 279 280 279 271 252 280 297 249 182 302 267 242 250 220 202 210 215 149 120 138 152 123 154 155 159 157